KUZGTU 1 (RS47S)

Last updated on Thu Nov 21 2024 00:03:03 GMT+0000 (Coordinated Universal Time)

1 57217U 23091AV 24325.58796480 .00014456 00000+0 80052-3 0 9997 2 57217 97.5908 16.9706 0014511 303.6665 56.3182 15.13842957 77129
UTC large
Height (km)
Speed (km/s)
/
Latitude / Longitude
Inclination (degrees)
Orbital Period (minutes)
Azimuth
Elevation
Range (km)
Doppler Factor

Next 0 passes for location: London (51.5072 / 0.1276)

Sorry there are no passes over London.